Location: Home
(42.5358°N, 72.7383°W)
Time: 20:08:21
(UTC-05:00)

Explorer 7 - Pass Details

Date: 08 December 2021
Orbit: 483 x 674 km, 50.3° (Epoch: 23 January)

Event Time Altitude Azimuth Distance (km) Brightness Sun altitude
Rises 03:35:25 0° 227° (SW) 2,918 - -38.3°
Reaches altitude 10° 03:37:48 10° 224° (SW) 1,985 - -37.9°
Maximum altitude 03:42:18 62° 144° (SE) 670 - -37.1°
Exits shadow 03:46:10 12° 65° (ENE) 1,732 10.0 -36.4°
Drops below altitude 10° 03:46:32 10° 64° (ENE) 1,874 10.2 -36.3°
Sets 03:48:44 0° 61° (ENE) 2,739 11.2 -35.9°
